Probability
0 0 0 0 0 0 0 0 0 0 0 3 6 6 6 3 3 3 6 10 13 13 13 13 16 16 10 10 10 6 6 10 16 19 23 26 19 16 19 16 10 19 13 13
0 0 0 0 0 0 0 0 0 0 0 3 10 10 6 6 3 6 6 10 10 13 19 23 16 16 16 19 13 6 10 6 10 13 19 26 23 19 23 19 19 23 13 13
0 0 0 0 0 0 3 0 0 0 0 6 13 6 10 3 6 13 10 13 13 13 23 26 29 26 23 19 16 16 16 10 10 13 13 10 10 19 23 26 19 23 23 23
0 0 0 0 0 3 3 3 3 0 3 6 6 6 6 10 13 10 16 16 16 23 23 32 29 29 26 13 6 6 10 10 10 10 10 13 16 23 23 19 26 32 32 32
3 0 0 3 0 0 3 0 0 6 6 13 3 3 6 10 16 16 19 26 26 23 26 32 32 29 26 19 13 6 3 10 6 6 10 6 13 16 16 19 26 32 29 26
3 0 0 0 0 0 3 0 3 10 13 3 6 3 6 16 16 13 23 29 32 26 29 29 32 26 26 23 19 16 10 10 10 13 10 16 19 23 19 35 26 26 26 26
0 0 0 0 0 0 0 0 10 10 6 3 10 16 23 16 19 23 26 26 29 32 32 26 29 29 29 16 16 16 13 13 13 19 16 16 19 19 29 26 19 19 26 29
3 0 0 0 0 6 16 6 10 16 6 6 13 16 16 23 23 26 26 26 29 29 35 35 29 32 26 23 16 13 13 16 16 19 10 13 16 29 29 29 23 35 35 32
10 6 16 10 19 19 10 3 3 6 13 13 13 13 13 16 19 19 26 19 29 32 35 35 32 29 23 29 19 16 13 16 16 13 10 10 16 19 19 19 16 16 16 10
10 6 3 3 6 6 3 6 3 6 6 13 10 16 16 19 23 23 23 23 26 29 32 32 29 26 29 23 26 23 23 19 23 19 16 19 16 13 13 13 16 16 10 3
3 0 3 3 3 6 3 3 3 10 10 10 13 16 16 23 26 23 23 23 26 26 26 26 26 26 26 26 26 26 26 26 26 13 10 19 13 13 13 16 13 13 13 10
10 6 10 6 3 3 6 6 6 10 10 10 13 16 16 19 23 26 23 26 26 19 19 23 23 26 26 26 26 29 26 26 19 19 19 13 13 13 3 0 0 0 0 0
3 3 0 3 3 6 6 6 6 6 10 10 13 13 19 26 26 19 19 23 19 23 19 19 23 23 26 23 26 26 26 26 19 16 16 10 10 10 10 0 0 0 0 0
6 3 3 3 3 3 6 3 6 6 10 10 10 16 19 19 16 19 16 19 19 19 19 16 23 23 23 23 26 26 23 16 19 19 16 13 10 6 3 3 0 0 0 0
3 3 3 3 3 3 3 3 3 6 6 6 6 6 13 16 16 16 13 13 16 13 10 10 10 16 16 19 23 19 16 16 16 13 6 3 0 0 0 0 0 0 0 0
3 3 3 3 3 3 3 3 3 3 3 3 6 16 16 16 16 13 13 10 10 10 10 10 10 13 10 16 19 19 16 3 3 10 10 3 3 0 0 0 0 0 0 0
6 6 3 3 3 3 3 3 3 3 3 3 6 16 16 13 10 13 10 10 10 10 10 10 6 6 6 10 10 10 6 3 0 0 3 0 0 0 0 0 0 0 0 0
6 6 6 6 6 3 3 3 3 3 3 3 6 10 10 13 10 6 10 10 13 13 13 6 6 6 6 6 10 10 6 3 3 0 0 0 0 0 0 0 0 0 0 0
3 3 3 3 0 0 0 0 3 3 3 6 6 10 6 6 10 10 6 6 6 3 3 3 0 6 6 6 6 10 6 6 3 0 0 0 0 0 0 0 0 0 0 0
0 0 3 0 0 0 0 0 0 3 3 3 6 10 10 6 10 10 13 10 3 3 3 6 3 0 3 6 0 0 0 0 3 3 0 0 0 0 0 0 0 0 0 0
0 0 0 3 0 0 0 0 0 0 3 3 3 6 10 10 10 10 6 10 13 13 3 0 3 3 3 0 0 0 0 0 0 0 0 3 0 0 0 0 0 0 0 0
3 3 0 0 0 0 0 3 3 3 6 3 3 3 6 10 10 10 13 10 10 0 0 0 0 0 0 0 0 0 0 0 0 0 3 3 0 0 0 0 0 0 0 0
6 6 3 3 3 0 0 0 3 3 6 6 6 6 6 10 3 6 10 10 3 0 0 0 0 0 0 0 0 0 0 0 0 0 0 0 0 0 0 0 0 0 0 0
6 6 6 3 6 3 3 0 3 6 6 6 3 3 10 0 3 6 6 0 0 0 0 0 0 0 0 0 0 0 0 0 0 0 0 0 0 0 0 0 0 0 0 0
6 6 6 6 6 3 3 6 3 6 6 0 0 0 0 3 0 3 3 0 0 0 0 0 0 0 0 0 0 0 0 0 0 0 0 0 0 0 3 0 0 0 0 0
10 10 6 6 6 3 0 0 0 0 0 0 0 0 0 3 0 0 6 0 0 0 0 0 0 0 0 0 0 0 0 0 0 0 0 0 0 0 0 3 0 0 0 0
3 10 10 3 3 0 0 0 0 0 0 0 0 0 0 0 0 0 0 0 0 0 0 0 0 0 0 0 0 0 0 0 0 0 0 0 0 0 0 0 0 0 0 0
Height
5815 5814 5813 5812 5811 5810 5809 5809 5808 5807 5805 5804 5802 5801 5799 5799 5799 5798 5798 5797 5797 5796 5796 5795 5795 5795 5794 5794 5793 5793 5792 5791 5790 5788 5787 5786 5784 5783 5781 5780 5778 5776 5775 5773
5812 5811 5810 5809 5808 5807 5807 5806 5805 5804 5804 5801 5800 5799 5798 5797 5797 5796 5796 5796 5795 5795 5795 5794 5794 5794 5793 5793 5792 5791 5790 5789 5788 5786 5785 5783 5782 5780 5779 5777 5775 5774 5772 5771
5808 5808 5807 5806 5805 5804 5803 5803 5802 5801 5800 5798 5798 5797 5796 5795 5795 5795 5795 5794 5794 5794 5793 5793 5793 5792 5792 5791 5790 5789 5788 5787 5785 5784 5782 5781 5779 5778 5776 5774 5772 5771 5769 5768
5805 5805 5803 5805 5803 5802 5801 5800 5799 5798 5797 5796 5795 5795 5794 5793 5793 5793 5793 5793 5792 5792 5792 5792 5791 5791 5790 5789 5788 5787 5785 5784 5783 5781 5780 5778 5777 5775 5773 5771 5770 5768 5766 5765
5801 5800 5799 5800 5799 5798 5797 5796 5796 5795 5794 5794 5793 5792 5792 5791 5791 5791 5791 5791 5791 5791 5790 5790 5789 5789 5788 5787 5786 5784 5783 5782 5780 5779 5777 5776 5774 5772 5771 5769 5767 5765 5764 5762
5796 5796 5795 5796 5795 5794 5794 5792 5792 5791 5791 5791 5790 5790 5789 5788 5788 5789 5789 5789 5789 5788 5788 5787 5787 5786 5785 5784 5783 5782 5780 5779 5777 5776 5774 5773 5771 5770 5768 5766 5764 5763 5761 5759
5791 5790 5790 5791 5790 5790 5790 5790 5788 5787 5787 5787 5787 5786 5786 5786 5786 5786 5786 5786 5786 5786 5786 5785 5785 5784 5783 5782 5781 5779 5778 5776 5775 5773 5772 5770 5768 5767 5765 5763 5762 5760 5758 5756
5786 5785 5787 5786 5786 5786 5785 5784 5783 5783 5783 5783 5783 5783 5783 5783 5783 5783 5783 5783 5783 5783 5783 5782 5782 5781 5780 5779 5778 5776 5775 5774 5772 5771 5769 5767 5766 5764 5762 5761 5759 5757 5755 5753
5782 5782 5781 5780 5780 5780 5780 5780 5779 5779 5779 5779 5779 5779 5779 5779 5779 5779 5779 5779 5780 5780 5779 5779 5779 5778 5777 5776 5775 5773 5772 5771 5769 5768 5766 5765 5763 5761 5759 5758 5755 5753 5751 5750
5775 5776 5775 5775 5775 5775 5775 5774 5774 5774 5775 5775 5775 5775 5775 5775 5775 5776 5776 5776 5776 5776 5776 5776 5775 5775 5774 5773 5771 5770 5769 5768 5766 5765 5763 5762 5760 5758 5756 5754 5752 5750 5748 5746
5769 5770 5769 5768 5770 5770 5770 5770 5769 5770 5770 5770 5770 5770 5770 5770 5771 5771 5771 5772 5772 5772 5772 5772 5771 5771 5770 5769 5768 5767 5766 5764 5763 5762 5760 5758 5757 5755 5753 5751 5749 5746 5744 5742
5764 5764 5764 5764 5764 5765 5765 5765 5765 5765 5765 5764 5764 5764 5765 5765 5766 5766 5766 5767 5767 5767 5767 5767 5767 5767 5766 5765 5764 5763 5762 5761 5760 5758 5757 5755 5754 5752 5749 5747 5746 5743 5741 5739
5757 5757 5757 5758 5758 5759 5759 5759 5759 5759 5759 5759 5759 5759 5759 5760 5760 5761 5761 5762 5762 5762 5762 5762 5762 5762 5762 5761 5760 5759 5758 5757 5756 5755 5753 5752 5750 5749 5747 5745 5743 5741 5739 5736
5750 5750 5751 5751 5752 5752 5753 5753 5753 5753 5753 5753 5753 5753 5753 5754 5755 5755 5756 5756 5757 5757 5757 5757 5757 5757 5757 5757 5756 5755 5754 5753 5752 5751 5750 5749 5747 5746 5744 5742 5741 5738 5736 5734
5742 5743 5743 5744 5745 5745 5746 5746 5747 5747 5747 5747 5747 5747 5748 5748 5749 5750 5750 5751 5751 5752 5752 5752 5753 5753 5752 5752 5751 5750 5750 5749 5748 5747 5746 5745 5744 5743 5741 5740 5738 5736 5734 5731
5735 5735 5736 5737 5738 5738 5738 5739 5740 5740 5740 5740 5741 5741 5741 5742 5743 5744 5744 5745 5746 5746 5747 5747 5747 5747 5747 5747 5746 5746 5745 5745 5744 5743 5742 5741 5741 5739 5738 5737 5735 5733 5731 5729
5727 5728 5728 5729 5730 5730 5731 5732 5732 5733 5733 5734 5733 5733 5734 5735 5736 5737 5738 5739 5739 5740 5741 5741 5741 5741 5741 5741 5741 5741 5740 5740 5740 5739 5738 5737 5736 5735 5734 5733 5732 5730 5728 5726
5719 5720 5720 5721 5722 5722 5723 5723 5724 5725 5725 5725 5725 5725 5727 5728 5729 5730 5731 5732 5733 5733 5734 5734 5735 5735 5736 5736 5735 5736 5735 5735 5735 5734 5733 5733 5732 5731 5730 5729 5728 5726 5724 5723
5710 5711 5712 5713 5713 5714 5714 5715 5716 5717 5717 5717 5718 5718 5720 5720 5721 5722 5723 5724 5725 5726 5727 5727 5728 5729 5729 5729 5729 5729 5730 5730 5729 5729 5728 5728 5727 5726 5726 5725 5724 5722 5721 5719
5701 5702 5703 5704 5704 5705 5706 5707 5708 5709 5709 5710 5710 5711 5712 5713 5714 5714 5715 5716 5717 5718 5719 5720 5721 5721 5722 5722 5722 5723 5724 5724 5724 5724 5723 5723 5722 5722 5721 5720 5719 5718 5717 5715
5692 5693 5694 5695 5696 5697 5698 5699 5700 5701 5702 5702 5702 5703 5704 5705 5706 5706 5707 5708 5709 5710 5711 5712 5713 5714 5715 5715 5716 5716 5717 5717 5717 5717 5717 5717 5717 5716 5716 5715 5714 5713 5712 5711
5683 5685 5686 5687 5688 5689 5690 5691 5692 5693 5693 5694 5695 5695 5696 5697 5698 5698 5699 5700 5701 5702 5702 5704 5705 5706 5707 5707 5708 5709 5710 5710 5711 5711 5711 5711 5711 5711 5710 5710 5709 5708 5707 5706
5675 5676 5678 5679 5680 5681 5682 5683 5684 5684 5685 5686 5686 5687 5688 5688 5689 5690 5691 5692 5692 5693 5694 5695 5696 5698 5699 5700 5701 5701 5702 5703 5703 5704 5705 5705 5705 5705 5705 5704 5704 5703 5702 5701
5667 5669 5670 5671 5672 5673 5674 5675 5676 5676 5677 5678 5678 5679 5679 5680 5681 5681 5682 5683 5684 5685 5685 5687 5688 5689 5690 5691 5693 5694 5695 5696 5696 5697 5698 5698 5698 5699 5698 5698 5698 5697 5696 5695
5659 5660 5662 5663 5664 5665 5666 5667 5667 5668 5669 5669 5670 5671 5671 5672 5673 5673 5674 5674 5675 5676 5677 5678 5680 5680 5681 5683 5684 5686 5687 5688 5689 5690 5690 5691 5692 5692 5692 5691 5691 5691 5690 5689
5650 5652 5653 5654 5655 5656 5657 5658 5659 5660 5661 5661 5662 5663 5663 5664 5665 5665 5666 5666 5667 5668 5668 5670 5671 5672 5673 5675 5676 5678 5679 5680 5681 5682 5683 5684 5684 5684 5684 5684 5684 5683 5683 5682
5642 5643 5644 5646 5647 5648 5649 5649 5651 5652 5653 5653 5654 5655 5656 5656 5657 5658 5658 5659 5660 5660 5661 5661 5662 5664 5665 5666 5668 5670 5671 5672 5673 5675 5675 5676 5676 5677 5677 5677 5676 5676 5675 5675
Wind_Speed
11 11 10 11 11 10 10 11 11 11 12 12 11 12 12 10 10 9 9 9 8 8 7 7 6 7 7 8 8 9 10 10 11 11 11 12 13 13 12 13 13 13 13 13
12 12 11 11 12 12 11 10 11 12 13 12 11 11 10 10 9 9 9 8 8 8 7 7 7 7 8 8 9 10 10 10 11 11 12 12 12 12 12 13 13 13 13 13
14 13 13 13 13 13 13 12 13 13 13 12 11 11 11 10 10 9 9 8 8 8 7 7 7 8 8 9 9 10 11 11 11 12 12 12 13 12 13 13 13 13 13 12
14 14 15 15 14 14 14 14 14 13 12 11 12 12 11 10 9 9 9 8 8 8 8 8 8 9 9 9 10 11 11 11 11 12 12 12 12 12 13 13 12 13 13 13
15 15 15 16 16 15 14 15 14 14 13 13 13 13 12 11 10 10 9 9 9 9 9 9 9 10 10 10 10 11 11 11 11 11 11 12 12 12 12 13 13 13 13 12
17 17 17 16 16 15 16 16 15 14 14 14 14 14 13 12 12 11 10 9 10 9 9 10 10 10 10 10 10 11 11 11 11 11 11 12 12 12 12 12 13 13 12 11
18 18 18 18 17 16 16 15 14 15 14 14 14 14 14 14 13 11 11 11 11 11 11 11 10 11 11 11 11 11 11 11 11 11 12 12 12 12 12 12 12 12 11 11
20 19 19 19 18 17 17 16 15 16 15 15 15 14 14 13 13 13 12 12 12 11 11 11 11 11 12 12 11 11 11 12 12 12 12 12 12 12 12 13 13 13 13 13
21 21 20 19 20 19 17 17 17 16 17 16 16 15 15 15 14 13 13 13 13 12 12 12 12 12 12 12 12 11 12 12 12 12 12 12 12 13 14 14 14 14 14 14
22 21 20 20 19 18 18 18 18 17 17 18 18 17 17 16 15 14 14 14 14 14 13 13 13 12 13 13 12 12 12 12 12 12 12 13 13 14 14 14 14 14 14 14
23 20 20 20 20 19 19 19 19 19 18 18 19 19 19 18 17 17 16 16 15 15 15 15 14 14 13 13 12 12 12 12 12 12 13 13 13 13 14 13 13 14 14 14
24 23 23 22 21 21 20 20 20 19 20 19 19 19 19 19 19 18 17 17 17 17 16 16 15 14 13 13 13 12 12 12 12 13 13 13 13 13 13 13 13 13 14 14
25 25 24 24 23 22 21 21 21 21 20 21 20 19 19 19 19 19 18 18 18 17 16 16 15 15 14 14 14 14 13 13 13 13 13 13 13 13 13 12 13 14 13 13
25 25 25 24 24 23 22 22 22 22 22 22 21 20 20 19 19 19 19 19 18 17 16 16 16 16 15 15 15 15 14 14 14 14 13 13 13 13 13 12 12 13 13 13
26 26 25 25 24 24 23 23 22 22 22 22 22 21 21 20 20 20 20 19 18 17 17 17 16 16 16 16 15 15 15 14 14 13 13 13 13 13 13 13 13 13 13 13
27 27 26 25 25 25 25 24 24 23 23 23 23 23 22 22 22 21 20 19 19 19 18 18 17 17 17 16 16 16 15 15 14 14 14 14 14 14 14 13 14 14 13 13
27 27 26 26 25 25 26 26 25 25 24 24 23 23 23 24 23 22 22 22 21 21 20 19 19 18 18 18 17 16 16 16 16 16 15 15 15 14 14 14 14 14 14 13
28 28 27 26 26 25 25 26 25 25 25 24 24 23 24 24 24 23 23 24 23 22 21 21 20 19 19 18 17 17 17 17 17 17 16 15 15 15 15 15 15 15 14 14
30 29 29 28 28 27 27 27 25 25 25 25 24 24 24 24 24 24 25 25 24 23 22 22 21 21 21 19 19 19 18 18 17 17 16 15 16 16 16 16 15 15 15 15
29 29 28 28 28 28 27 27 27 27 26 25 25 25 25 25 25 25 25 25 25 24 24 24 23 23 22 21 20 20 20 19 19 19 18 17 17 16 16 16 15 15 15 15
27 27 27 28 28 27 27 27 27 27 26 25 25 25 25 25 25 25 25 26 26 25 25 25 24 24 23 23 22 22 21 21 21 20 19 19 18 17 16 16 16 17 17 17
28 27 27 27 27 26 27 27 27 27 26 26 26 26 25 25 25 25 25 26 26 26 25 25 25 25 24 24 23 23 22 22 22 21 20 19 19 18 18 17 17 18 18 18
28 28 28 27 26 26 27 27 27 26 26 26 26 26 26 26 26 26 26 26 26 26 26 25 25 25 25 25 24 24 23 22 22 21 21 21 20 19 19 18 18 19 19 19
29 29 29 28 27 27 27 26 26 26 26 26 26 26 27 26 26 27 26 25 24 25 26 25 24 25 25 26 25 24 24 23 23 22 22 21 21 20 20 20 20 20 20 20
28 28 28 28 27 27 27 26 26 26 26 26 25 25 25 25 25 25 25 24 24 25 25 25 25 25 25 25 26 25 24 24 23 23 23 22 22 22 22 22 22 22 21 21
28 28 27 27 26 26 26 25 25 25 25 25 24 25 24 24 25 24 24 24 24 24 24 25 26 25 25 25 25 24 24 24 24 24 24 23 23 23 22 22 23 23 23 22
27 27 26 26 26 25 25 24 24 25 25 25 24 25 25 25 25 24 24 24 24 24 24 24 24 25 25 25 24 24 24 25 25 25 24 24 24 24 24 24 24 24 24 24
Wind_Direction
291 293 294 297 295 287 278 280 283 291 292 290 295 301 299 293 287 286 290 294 298 297 299 300 303 306 306 306 308 309 309 309 307 306 306 309 308 307 310 311 309 306 305 306
291 295 295 295 293 289 280 276 279 283 286 288 291 295 290 287 287 287 289 291 289 287 290 293 298 300 304 304 304 306 308 307 308 307 308 310 308 308 310 312 311 309 308 308
288 291 293 291 291 286 279 277 279 285 284 287 285 288 288 285 286 288 290 286 280 283 287 291 297 300 302 302 304 307 308 308 308 307 307 307 306 306 308 309 309 307 308 309
287 286 284 289 285 284 283 283 285 287 284 283 285 285 285 282 283 285 286 283 281 282 287 291 294 296 298 302 305 308 311 311 310 307 306 305 306 308 313 314 310 309 309 309
285 283 283 283 281 281 281 279 281 283 279 277 278 278 279 277 279 280 281 279 282 284 285 288 289 291 296 302 305 307 309 311 310 309 310 310 310 310 313 315 312 307 307 307
280 277 277 276 278 279 278 276 277 278 275 275 277 273 273 275 274 276 278 279 280 283 285 287 289 293 297 301 306 308 309 310 311 310 310 310 310 311 311 313 311 308 306 306
276 273 271 274 277 276 274 275 273 275 276 274 275 270 272 277 274 273 273 274 277 279 281 282 286 291 295 299 304 307 310 312 310 309 310 310 308 310 311 311 312 310 308 308
276 273 271 275 276 274 274 274 271 273 275 274 273 274 276 276 274 271 269 273 276 279 282 282 283 288 295 299 301 304 306 309 308 309 312 311 310 310 311 312 313 313 310 308
270 270 273 273 274 273 273 274 272 271 272 273 272 272 273 274 272 269 270 271 273 278 281 284 283 285 292 297 298 299 303 306 307 309 311 312 311 311 311 310 311 312 310 307
268 267 267 268 270 270 267 270 272 270 270 270 270 269 269 269 267 266 269 271 273 277 278 281 282 284 290 294 296 298 301 304 306 307 309 311 312 313 314 313 312 313 313 311
264 265 270 271 270 270 269 269 271 270 270 268 268 268 267 266 264 266 268 268 270 273 274 275 278 281 287 291 295 297 298 301 304 307 308 309 311 312 314 315 315 313 314 315
265 266 267 267 267 267 268 269 270 271 270 267 267 267 266 265 263 264 265 267 269 269 270 271 275 278 281 286 290 294 295 296 299 304 307 308 309 312 314 314 313 314 316 315
264 265 265 265 266 267 268 269 270 270 269 269 269 269 266 265 264 263 264 266 268 267 269 272 273 274 276 281 287 292 291 292 295 299 304 306 309 313 315 314 313 315 316 317
265 264 263 264 266 267 267 267 267 268 269 268 269 269 266 264 264 262 262 264 266 266 267 269 272 273 274 278 284 288 289 290 292 295 298 301 306 312 315 316 318 320 320 319
263 264 264 265 265 265 265 265 266 266 267 268 268 266 264 263 263 262 261 262 263 265 266 267 270 273 275 277 282 285 287 290 290 291 294 296 300 305 309 314 318 320 320 318
262 263 264 265 265 264 263 263 265 266 266 267 267 265 262 261 261 261 260 262 263 264 265 266 268 270 273 274 278 281 282 285 285 288 290 292 295 298 301 306 311 314 315 316
261 262 264 265 265 264 264 262 263 266 267 267 266 264 261 260 261 261 260 260 262 264 264 264 266 269 271 273 277 279 279 279 280 283 286 289 292 294 297 300 303 307 311 313
261 262 262 263 263 264 265 263 264 264 264 266 266 264 261 261 261 262 261 260 261 263 263 262 263 266 270 270 273 276 277 277 278 281 283 285 288 290 292 296 300 303 307 310
260 261 261 262 263 263 264 264 264 264 265 265 265 265 265 263 261 261 260 259 259 261 262 262 261 263 264 266 269 272 274 276 279 282 282 283 286 288 289 293 296 300 303 308
259 260 260 261 261 262 262 262 263 263 263 264 264 264 264 263 262 262 260 259 260 262 262 262 262 263 263 267 269 270 271 271 274 277 279 282 285 287 289 291 292 297 300 302
256 257 258 260 261 261 260 260 261 262 263 264 264 263 263 263 264 264 262 259 259 260 261 262 262 263 263 264 265 266 266 267 269 272 275 278 281 284 286 287 289 291 294 297
253 255 257 258 259 259 260 260 260 261 262 263 264 265 264 264 265 265 264 262 261 260 260 261 261 261 260 260 263 265 264 265 266 268 271 273 276 280 284 286 287 289 290 293
253 255 257 257 257 258 259 260 262 263 262 263 264 263 264 265 265 265 264 264 262 259 258 259 260 259 258 259 262 263 262 261 263 266 269 270 273 277 281 284 287 288 289 290
255 256 256 257 257 256 258 260 261 262 263 264 264 264 265 265 264 265 265 265 263 260 257 257 259 259 258 257 259 260 260 260 261 262 265 268 270 273 277 280 284 287 288 289
256 257 257 257 257 257 257 258 259 261 262 263 264 264 264 263 262 262 263 265 265 262 259 257 257 258 258 257 257 257 258 259 260 262 263 266 269 272 275 278 281 284 287 291
254 254 254 255 256 257 258 258 258 259 260 261 262 263 263 262 261 262 262 263 265 263 260 258 256 256 257 257 256 255 255 257 260 263 265 266 267 269 273 276 278 280 284 287
252 252 253 255 255 255 256 256 258 259 260 260 261 261 261 261 261 261 261 262 262 261 260 258 256 255 255 255 255 256 256 258 260 261 262 264 266 269 272 274 277 279 280 282